• In Hungary
  • List of Countries
  • For 7 days
  • Water Temperature
  • Satellite Maps
  • Weather Map
  • News
  • Weather Widgets
  • user-avatar
    Login

    Hourly Weather Elovka

    Today, 23 October, Monday

    Time Temperature Precipitation Wind Pressure Humidity
    00:00 +2°C° 0 mm 2 mps 716 mmHg 81%
    01:00 +2°C° 0 mm 2 mps 716 mmHg 80%
    02:00 +1°C° 0 mm 2 mps 715 mmHg 80%
    03:00 +1°C° 0 mm 2 mps 715 mmHg 81%
    04:00 +1°C° 0 mm 2 mps 715 mmHg 81%
    05:00 +1°C° 0 mm 2 mps 715 mmHg 81%
    06:00 +1°C° 0 mm 2 mps 715 mmHg 81%
    07:00 +2°C° 0 mm 1 mps 715 mmHg 82%
    08:00 +4°C° 0 mm 1 mps 715 mmHg 74%
    09:00 +6°C° 0 mm 1 mps 715 mmHg 65%
    10:00 +8°C° 0 mm 1 mps 715 mmHg 57%
    11:00 +8°C° 0 mm 2 mps 715 mmHg 55%
    12:00 +9°C° 0 mm 2 mps 715 mmHg 52%
    13:00 +10°C° 0 mm 2 mps 714 mmHg 50%
    14:00 +9°C° 0 mm 2 mps 715 mmHg 55%
    15:00 +8°C° 0 mm 2 mps 715 mmHg 61%
    16:00 +8°C° 0 mm 1 mps 715 mmHg 66%
    17:00 +7°C° 0 mm 1 mps 716 mmHg 71%
    18:00 +6°C° 0 mm 1 mps 717 mmHg 76%
    19:00 +5°C° 0 mm 1 mps 718 mmHg 81%
    20:00 +4°C° 0 mm 2 mps 718 mmHg 84%
    21:00 +3°C° 0 mm 2 mps 719 mmHg 87%
    22:00 +3°C° 0 mm 2 mps 720 mmHg 90%
    23:00 +3°C° 0.1 mm 2 mps 720 mmHg 89%

    Tomorrow, 24 October, Tuesday

    Time Temperature Precipitation Wind Pressure Humidity
    00:00 +3°C° 0.1 mm 2 mps 721 mmHg 89%
    01:00 +3°C° 0.1 mm 2 mps 722 mmHg 89%
    02:00 +2°C° 0 mm 2 mps 722 mmHg 88%
    03:00 +2°C° 0 mm 2 mps 722 mmHg 87%
    04:00 +2°C° 0 mm 2 mps 723 mmHg 87%
    05:00 +2°C° 0 mm 1 mps 723 mmHg 87%
    06:00 +1°C° 0 mm 1 mps 723 mmHg 88%
    07:00 +1°C° 0 mm 1 mps 723 mmHg 89%
    08:00 +2°C° 0 mm 1 mps 724 mmHg 78%
    09:00 +4°C° 0 mm 1 mps 724 mmHg 67%
    10:00 +6°C° 0 mm 1 mps 724 mmHg 56%
    11:00 +7°C° 0 mm 1 mps 723 mmHg 53%
    12:00 +7°C° 0 mm 1 mps 723 mmHg 50%
    13:00 +8°C° 0 mm 1 mps 722 mmHg 47%
    14:00 +7°C° 0 mm 1 mps 722 mmHg 51%
    15:00 +6°C° 0 mm 1 mps 722 mmHg 56%
    16:00 +5°C° 0 mm 1 mps 721 mmHg 60%
    17:00 +4°C° 0 mm 1 mps 721 mmHg 64%
    18:00 +3°C° 0 mm 1 mps 721 mmHg 68%
    19:00 +2°C° 0 mm 1 mps 721 mmHg 72%
    20:00 +2°C° 0 mm 1 mps 721 mmHg 73%
    21:00 +2°C° 0 mm 1 mps 720 mmHg 75%
    22:00 +2°C° 0 mm 1 mps 720 mmHg 76%
    23:00 +2°C° 0 mm 1 mps 720 mmHg 77%

    Day after tomorrow, 25 October, Wednesday

    Time Temperature Precipitation Wind Pressure Humidity
    00:00 +1°C° 0 mm 1 mps 719 mmHg 79%
    01:00 +1°C° 0 mm 1 mps 719 mmHg 80%
    02:00 +1°C° 0 mm 1 mps 719 mmHg 81%
    03:00 +1°C° 0 mm 1 mps 718 mmHg 82%
    04:00 +1°C° 0 mm 1 mps 718 mmHg 84%
    05:00 +1°C° 0 mm 1 mps 718 mmHg 85%
    06:00 +1°C° 0 mm 1 mps 718 mmHg 87%
    07:00 +1°C° 0 mm 1 mps 718 mmHg 88%
    08:00 +3°C° 0 mm 1 mps 718 mmHg 81%
    09:00 +5°C° 0 mm 1 mps 718 mmHg 73%
    10:00 +8°C° 0 mm 1 mps 718 mmHg 66%
    11:00 +9°C° 0 mm 1 mps 717 mmHg 62%
    12:00 +10°C° 0 mm 1 mps 717 mmHg 58%
    13:00 +10°C° 0 mm 0 mps 716 mmHg 54%
    14:00 +8°C° 0 mm 0 mps 716 mmHg 60%
    15:00 +7°C° 0 mm 0 mps 716 mmHg 65%
    16:00 +6°C° 0 mm 0 mps 716 mmHg 71%
    17:00 +6°C° 0 mm 1 mps 716 mmHg 75%
    18:00 +5°C° 0 mm 1 mps 716 mmHg 79%
    19:00 +4°C° 0 mm 1 mps 716 mmHg 83%
    20:00 +3°C° 0 mm 1 mps 716 mmHg 84%
    21:00 +3°C° 0 mm 1 mps 715 mmHg 84%
    22:00 +3°C° 0 mm 1 mps 715 mmHg 85%
    23:00 +2°C° 0 mm 2 mps 715 mmHg 85%

    26 October, Thursday

    Time Temperature Precipitation Wind Pressure Humidity
    00:00 +2°C° 0 mm 2 mps 714 mmHg 86%
    01:00 +1°C° 0 mm 2 mps 714 mmHg 86%
    02:00 +1°C° 0 mm 2 mps 713 mmHg 86%
    03:00 +1°C° 0 mm 2 mps 712 mmHg 87%
    04:00 +1°C° 0 mm 2 mps 712 mmHg 87%
    05:00 +1°C° 0 mm 2 mps 712 mmHg 88%
    06:00 +1°C° 0 mm 2 mps 712 mmHg 88%
    07:00 +1°C° 0 mm 2 mps 712 mmHg 89%
    08:00 +3°C° 0 mm 2 mps 712 mmHg 83%
    09:00 +4°C° 0 mm 2 mps 711 mmHg 77%
    10:00 +6°C° 0 mm 2 mps 711 mmHg 71%
    11:00 +4°C° 0 mm 3 mps 711 mmHg 71%
    12:00 +4°C° 0 mm 3 mps 711 mmHg 71%
    13:00 +4°C° 0 mm 3 mps 711 mmHg 71%
    14:00 +3°C° 0.3 mm 3 mps 711 mmHg 75%
    15:00 +2°C° 0.3 mm 3 mps 712 mmHg 79%
    16:00 +1°C° 0.3 mm 3 mps 712 mmHg 83%
    17:00 0°C° 0.4 mm 4 mps 713 mmHg 82%
    18:00 -1°C° 0.4 mm 4 mps 714 mmHg 81%
    19:00 -2°C° 0.4 mm 4 mps 714 mmHg 80%
    20:00 -2°C° 0.1 mm 4 mps 715 mmHg 77%
    21:00 -3°C° 0.1 mm 4 mps 716 mmHg 73%
    22:00 -3°C° 0.1 mm 4 mps 716 mmHg 69%
    23:00 -3°C° 0 mm 4 mps 717 mmHg 69%

    27 October, Friday

    Time Temperature Precipitation Wind Pressure Humidity
    00:00 -3°C° 0 mm 4 mps 717 mmHg 69%
    01:00 -5°C° 0 mm 5 mps 717 mmHg 68%
    02:00 -4°C° 0 mm 4 mps 718 mmHg 71%
    03:00 -4°C° 0 mm 4 mps 718 mmHg 74%
    04:00 -5°C° 0 mm 4 mps 718 mmHg 77%
    05:00 -4°C° 0.1 mm 4 mps 718 mmHg 76%
    06:00 -4°C° 0.1 mm 4 mps 718 mmHg 76%
    07:00 -5°C° 0.1 mm 5 mps 718 mmHg 75%
    08:00 -5°C° 0.2 mm 5 mps 718 mmHg 72%
    09:00 -4°C° 0.2 mm 6 mps 718 mmHg 69%
    10:00 -4°C° 0.2 mm 7 mps 719 mmHg 67%
    11:00 -4°C° 0.2 mm 7 mps 719 mmHg 65%
    12:00 -4°C° 0.2 mm 7 mps 719 mmHg 63%
    13:00 -4°C° 0.2 mm 7 mps 719 mmHg 61%
    14:00 -4°C° 0.1 mm 7 mps 720 mmHg 63%
    15:00 -4°C° 0.1 mm 6 mps 721 mmHg 66%
    16:00 -4°C° 0.1 mm 6 mps 721 mmHg 68%
    17:00 -5°C° 0.1 mm 5 mps 722 mmHg 70%
    18:00 -5°C° 0.1 mm 5 mps 722 mmHg 73%
    19:00 -5°C° 0.1 mm 5 mps 723 mmHg 75%
    20:00 -4°C° 0 mm 4 mps 723 mmHg 77%
    21:00 -5°C° 0 mm 4 mps 724 mmHg 78%
    22:00 -5°C° 0 mm 3 mps 724 mmHg 80%
    23:00 -5°C° 0.1 mm 3 mps 724 mmHg 82%

    28 October, Saturday

    Time Temperature Precipitation Wind Pressure Humidity
    00:00 -5°C° 0.1 mm 3 mps 724 mmHg 83%
    01:00 -5°C° 0.1 mm 3 mps 724 mmHg 85%
    02:00 -4°C° 0.2 mm 4 mps 724 mmHg 85%
    03:00 -4°C° 0.2 mm 4 mps 725 mmHg 84%
    04:00 -4°C° 0.2 mm 4 mps 725 mmHg 84%
    05:00 -4°C° 0.2 mm 4 mps 725 mmHg 83%
    06:00 -4°C° 0.2 mm 4 mps 726 mmHg 82%
    07:00 -4°C° 0.2 mm 4 mps 726 mmHg 80%
    08:00 -3°C° 0 mm 4 mps 726 mmHg 76%
    09:00 -3°C° 0 mm 4 mps 726 mmHg 71%
    10:00 -2°C° 0 mm 4 mps 727 mmHg 66%
    11:00 -2°C° 0 mm 4 mps 726 mmHg 66%
    12:00 -1°C° 0 mm 4 mps 726 mmHg 65%
    13:00 -1°C° 0 mm 4 mps 726 mmHg 64%
    14:00 0°C° 0 mm 3 mps 726 mmHg 69%
    15:00 -1°C° 0 mm 2 mps 726 mmHg 73%
    16:00 0°C° 0 mm 1 mps 725 mmHg 78%
    17:00 -1°C° 0 mm 1 mps 725 mmHg 81%
    18:00 -2°C° 0 mm 1 mps 725 mmHg 85%
    19:00 -3°C° 0 mm 1 mps 725 mmHg 88%
    20:00 -3°C° 0 mm 1 mps 725 mmHg 87%
    21:00 -3°C° 0 mm 1 mps 724 mmHg 86%
    22:00 -5°C° 0 mm 2 mps 724 mmHg 85%
    23:00 -5°C° 0 mm 2 mps 723 mmHg 84%

    29 October, Sunday

    Time Temperature Precipitation Wind Pressure Humidity
    00:00 -5°C° 0 mm 2 mps 722 mmHg 83%
    01:00 -6°C° 0 mm 2 mps 722 mmHg 81%
    02:00 -6°C° 0 mm 2 mps 721 mmHg 80%
    03:00 -6°C° 0 mm 2 mps 721 mmHg 80%
    04:00 -6°C° 0 mm 2 mps 720 mmHg 79%
    05:00 -6°C° 0 mm 2 mps 720 mmHg 79%
    06:00 -6°C° 0 mm 2 mps 719 mmHg 79%
    07:00 -6°C° 0 mm 2 mps 719 mmHg 79%
    08:00 -4°C° 0 mm 2 mps 718 mmHg 70%
    09:00 -2°C° 0 mm 2 mps 718 mmHg 62%
    10:00 +2°C° 0 mm 2 mps 718 mmHg 53%
    11:00 +3°C° 0 mm 2 mps 717 mmHg 51%
    12:00 +4°C° 0 mm 2 mps 716 mmHg 48%
    13:00 +5°C° 0 mm 2 mps 716 mmHg 46%
    14:00 +4°C° 0 mm 2 mps 715 mmHg 51%
    15:00 +4°C° 0 mm 1 mps 715 mmHg 55%
    16:00 +2°C° 0 mm 1 mps 715 mmHg 60%
    17:00 +1°C° 0 mm 1 mps 715 mmHg 62%
    18:00 0°C° 0 mm 1 mps 715 mmHg 65%
    19:00 -1°C° 0 mm 1 mps 715 mmHg 67%
    20:00 -1°C° 0 mm 1 mps 714 mmHg 66%
    21:00 -1°C° 0 mm 1 mps 714 mmHg 65%
    22:00 -1°C° 0 mm 1 mps 714 mmHg 64%
    23:00 -1°C° 0 mm 1 mps 714 mmHg 63%
    Show more